TimeCDT,TemperatureF,Dew PointF,Humidity,Sea Level PressureIn,VisibilityMPH,Wind Direction,Wind SpeedMPH,Gust SpeedMPH,PrecipitationIn,Events,Conditions,WindDirDegrees,DateUTC
12:53 AM,81.0,70.0,69,29.97,10.0,Variable,3.5,-,N/A,,Clear,0,2013-06-25 05:53:00
1:53 AM,79.0,70.0,74,29.96,10.0,Variable,4.6,-,N/A,,Clear,0,2013-06-25 06:53:00
2:53 AM,78.1,71.1,79,29.96,10.0,Variable,3.5,-,N/A,,Clear,0,2013-06-25 07:53:00
3:53 AM,77.0,71.1,82,29.95,10.0,Variable,3.5,-,N/A,,Clear,0,2013-06-25 08:53:00
4:53 AM,77.0,71.1,82,29.96,10.0,Variable,4.6,-,N/A,,Clear,0,2013-06-25 09:53:00
5:53 AM,77.0,71.1,82,29.97,10.0,Variable,3.5,-,N/A,,Clear,0,2013-06-25 10:53:00
6:36 AM,77.0,71.6,83,30.02,8.0,Calm,Calm,-,N/A,,Mostly Cloudy,0,2013-06-25 11:36:00
6:53 AM,77.0,72.0,84,29.99,8.0,Calm,Calm,-,N/A,,Overcast,0,2013-06-25 11:53:00
7:53 AM,78.1,72.0,81,29.99,8.0,Calm,Calm,-,N/A,,Overcast,0,2013-06-25 12:53:00
8:53 AM,79.0,71.1,77,30.00,10.0,SW,9.2,-,N/A,,Mostly Cloudy,230,2013-06-25 13:53:00
9:18 AM,80.6,71.6,74,30.03,10.0,Variable,3.5,-,N/A,,Scattered Clouds,0,2013-06-25 14:18:00
9:53 AM,81.0,70.0,69,29.99,10.0,WSW,8.1,-,N/A,,Partly Cloudy,250,2013-06-25 14:53:00
10:53 AM,82.9,70.0,65,29.98,10.0,Variable,5.8,-,N/A,,Partly Cloudy,0,2013-06-25 15:53:00
11:53 AM,84.0,70.0,63,29.97,10.0,Calm,Calm,-,N/A,,Scattered Clouds,0,2013-06-25 16:53:00
12:53 PM,87.1,69.1,55,29.97,10.0,Variable,6.9,-,N/A,,Partly Cloudy,0,2013-06-25 17:53:00
1:53 PM,88.0,69.1,53,29.96,10.0,Calm,Calm,-,N/A,,Partly Cloudy,0,2013-06-25 18:53:00
2:53 PM,87.1,69.1,55,29.95,10.0,South,6.9,-,N/A,,Partly Cloudy,180,2013-06-25 19:53:00
3:53 PM,87.1,68.0,53,29.93,10.0,Variable,3.5,-,N/A,,Clear,0,2013-06-25 20:53:00
4:53 PM,87.1,70.0,57,29.91,10.0,Variable,3.5,-,N/A,,Clear,0,2013-06-25 21:53:00
5:53 PM,87.1,71.1,59,29.88,10.0,SSW,4.6,-,N/A,,Clear,210,2013-06-25 22:53:00
6:53 PM,86.0,71.1,61,29.87,10.0,Calm,Calm,-,N/A,,Clear,0,2013-06-25 23:53:00
7:53 PM,84.0,71.1,65,29.87,10.0,Variable,3.5,-,N/A,,Clear,0,2013-06-26 00:53:00
8:53 PM,82.9,72.0,69,29.86,10.0,Variable,3.5,-,N/A,,Clear,0,2013-06-26 01:53:00
9:53 PM,82.9,72.0,69,29.87,10.0,Calm,Calm,-,N/A,,Clear,0,2013-06-26 02:53:00
10:53 PM,82.0,72.0,71,29.87,10.0,Variable,4.6,-,N/A,,Clear,0,2013-06-26 03:53:00
11:53 PM,81.0,71.1,72,29.88,10.0,Variable,5.8,-,N/A,,Clear,0,2013-06-26 04:53:00